TimeCST,TemperatureF,Dew PointF,Humidity,Sea Level PressureIn,VisibilityMPH,Wind Direction,Wind SpeedMPH,Gust SpeedMPH,PrecipitationIn,Events,Conditions,WindDirDegrees,DateUTC
12:15 AM,62.6,55.4,77,29.79,5.0,SSE,6.9,-,0.10,Thunderstorm,Overcast,160,2013-12-21 06:15:00
12:35 AM,64.4,55.4,73,29.76,10.0,SE,16.1,20.7,0.12,Thunderstorm,Thunderstorm,140,2013-12-21 06:35:00
12:55 AM,64.4,55.4,73,29.79,10.0,WSW,19.6,24.2,0.17,Thunderstorm,Thunderstorm,240,2013-12-21 06:55:00
1:15 AM,62.6,55.4,77,29.79,10.0,South,10.4,-,0.04,Thunderstorm,Overcast,170,2013-12-21 07:15:00
1:35 AM,64.4,55.4,73,29.78,10.0,South,8.1,-,0.04,,Overcast,170,2013-12-21 07:35:00
1:55 AM,64.4,55.4,73,29.77,10.0,SSE,8.1,-,0.04,,Overcast,160,2013-12-21 07:55:00
2:15 AM,64.4,57.2,77,29.76,10.0,SSE,8.1,-,N/A,,Overcast,160,2013-12-21 08:15:00
2:35 AM,66.2,57.2,73,29.74,10.0,South,12.7,21.9,N/A,,Overcast,170,2013-12-21 08:35:00
2:55 AM,66.2,57.2,73,29.76,10.0,South,12.7,18.4,N/A,,Mostly Cloudy,190,2013-12-21 08:55:00
3:15 AM,64.4,55.4,73,29.74,10.0,South,11.5,19.6,0.05,,Mostly Cloudy,180,2013-12-21 09:15:00
3:35 AM,64.4,55.4,73,29.73,10.0,South,12.7,18.4,0.05,,Overcast,180,2013-12-21 09:35:00
3:55 AM,66.2,55.4,68,29.72,10.0,South,11.5,21.9,0.05,,Overcast,180,2013-12-21 09:55:00
4:15 AM,66.2,55.4,68,29.71,10.0,South,13.8,20.7,N/A,,Overcast,180,2013-12-21 10:15:00
4:35 AM,66.2,55.4,68,29.70,10.0,South,15.0,24.2,N/A,,Overcast,180,2013-12-21 10:35:00
4:55 AM,66.2,55.4,68,29.70,10.0,South,15.0,26.5,N/A,,Overcast,170,2013-12-21 10:55:00
5:15 AM,66.2,55.4,68,29.70,10.0,South,11.5,20.7,N/A,,Overcast,180,2013-12-21 11:15:00
5:35 AM,66.2,55.4,68,29.69,10.0,South,11.5,25.3,N/A,,Overcast,180,2013-12-21 11:35:00
5:55 AM,66.2,55.4,68,29.70,10.0,South,13.8,20.7,N/A,,Overcast,180,2013-12-21 11:55:00
6:15 AM,66.2,55.4,68,29.68,9.0,South,12.7,24.2,0.01,,Mostly Cloudy,170,2013-12-21 12:15:00
6:35 AM,66.2,55.4,68,29.68,10.0,South,12.7,20.7,0.01,,Overcast,170,2013-12-21 12:35:00
6:55 AM,66.2,55.4,68,29.68,10.0,South,12.7,20.7,0.02,,Overcast,170,2013-12-21 12:55:00
7:15 AM,66.2,55.4,68,29.68,10.0,South,11.5,20.7,N/A,,Overcast,170,2013-12-21 13:15:00
7:35 AM,66.2,55.4,68,29.68,10.0,South,11.5,20.7,N/A,,Overcast,170,2013-12-21 13:35:00
7:55 AM,66.2,55.4,68,29.68,10.0,South,12.7,20.7,N/A,,Mostly Cloudy,180,2013-12-21 13:55:00
8:15 AM,66.2,55.4,68,29.68,10.0,South,15.0,20.7,N/A,,Mostly Cloudy,180,2013-12-21 14:15:00
8:35 AM,66.2,55.4,68,29.67,10.0,South,13.8,23.0,N/A,,Overcast,170,2013-12-21 14:35:00
8:55 AM,68.0,55.4,64,29.68,10.0,South,15.0,24.2,N/A,,Mostly Cloudy,180,2013-12-21 14:55:00
9:15 AM,68.0,55.4,64,29.68,10.0,South,13.8,25.3,N/A,,Mostly Cloudy,180,2013-12-21 15:15:00
9:35 AM,68.0,55.4,64,29.71,10.0,South,11.5,28.8,N/A,,Overcast,190,2013-12-21 15:35:00
9:55 AM,68.0,55.4,64,29.72,10.0,South,16.1,28.8,N/A,,Mostly Cloudy,190,2013-12-21 15:55:00
10:15 AM,68.0,55.4,64,29.73,10.0,SSW,16.1,24.2,N/A,Thunderstorm,Overcast,200,2013-12-21 16:15:00
10:35 AM,66.2,55.4,68,29.75,10.0,SW,15.0,21.9,0.02,,Overcast,230,2013-12-21 16:35:00
10:55 AM,62.6,53.6,72,29.73,10.0,WNW,4.6,-,0.03,,Overcast,300,2013-12-21 16:55:00
11:15 AM,62.6,53.6,72,29.70,10.0,Calm,Calm,-,0.01,,Overcast,0,2013-12-21 17:15:00
11:35 AM,62.6,53.6,72,29.66,10.0,East,4.6,-,0.02,,Overcast,80,2013-12-21 17:35:00
11:55 AM,62.6,53.6,72,29.65,10.0,ENE,5.8,-,0.02,,Mostly Cloudy,70,2013-12-21 17:55:00
12:15 PM,64.4,55.4,73,29.62,10.0,SSE,6.9,-,N/A,,Overcast,150,2013-12-21 18:15:00
12:35 PM,66.2,55.4,68,29.59,10.0,SSE,10.4,20.7,N/A,,Overcast,150,2013-12-21 18:35:00
12:55 PM,68.0,55.4,64,29.58,10.0,South,6.9,16.1,N/A,,Overcast,190,2013-12-21 18:55:00
1:15 PM,68.0,57.2,68,29.55,10.0,SSE,10.4,16.1,N/A,,Overcast,150,2013-12-21 19:15:00
1:35 PM,68.0,57.2,68,29.53,10.0,South,12.7,17.3,N/A,,Overcast,170,2013-12-21 19:35:00
1:55 PM,68.0,57.2,68,29.53,8.0,SSE,9.2,17.3,0.03,,Overcast,160,2013-12-21 19:55:00
2:15 PM,66.2,57.2,73,29.54,8.0,WSW,11.5,-,0.11,Thunderstorm,Overcast,240,2013-12-21 20:15:00
2:35 PM,66.2,57.2,73,29.52,5.0,South,6.9,-,0.37,Thunderstorm,Overcast,180,2013-12-21 20:35:00
2:55 PM,66.2,57.2,73,29.51,6.0,South,9.2,-,0.45,,Mostly Cloudy,170,2013-12-21 20:55:00
3:15 PM,66.2,57.2,73,29.49,10.0,SSE,8.1,-,0.02,,Mostly Cloudy,160,2013-12-21 21:15:00
3:35 PM,66.2,57.2,73,29.51,9.0,South,9.2,-,0.07,Thunderstorm,Overcast,190,2013-12-21 21:35:00
3:55 PM,68.0,57.2,68,29.52,10.0,SSW,10.4,16.1,0.14,,Overcast,210,2013-12-21 21:55:00
4:15 PM,68.0,57.2,68,29.51,10.0,South,10.4,17.3,0.04,Thunderstorm,Overcast,190,2013-12-21 22:15:00
4:35 PM,64.4,55.4,73,29.53,7.0,West,24.2,36.8,0.28,Thunderstorm,Thunderstorm,270,2013-12-21 22:35:00
4:55 PM,62.6,55.4,77,29.54,7.0,SW,10.4,21.9,0.96,,Mostly Cloudy,220,2013-12-21 22:55:00
5:15 PM,62.6,55.4,77,29.53,6.0,SW,13.8,18.4,0.12,,Overcast,230,2013-12-21 23:15:00
5:35 PM,64.4,55.4,73,29.52,6.0,SSW,10.4,-,0.32,Thunderstorm,Thunderstorm,210,2013-12-21 23:35:00
5:55 PM,64.4,55.4,73,29.50,8.0,SW,8.1,17.3,0.50,Thunderstorm,Thunderstorm,220,2013-12-21 23:55:00
6:15 PM,64.4,55.4,73,29.52,5.0,South,11.5,18.4,0.30,Thunderstorm,Thunderstorm,190,2013-12-22 00:15:00
6:35 PM,62.6,55.4,77,29.54,3.0,West,12.7,23.0,0.81,Thunderstorm,Thunderstorm,270,2013-12-22 00:35:00
6:55 PM,60.8,53.6,77,29.50,10.0,West,5.8,-,0.95,Thunderstorm,Mostly Cloudy,260,2013-12-22 00:55:00
7:15 PM,60.8,53.6,77,29.55,10.0,West,13.8,-,0.02,Thunderstorm,Mostly Cloudy,260,2013-12-22 01:15:00
7:35 PM,51.8,44.6,76,29.59,10.0,West,11.5,-,0.08,Thunderstorm,Overcast,260,2013-12-22 01:35:00
7:55 PM,50.0,42.8,76,29.61,10.0,West,9.2,-,0.17,Thunderstorm,Overcast,260,2013-12-22 01:55:00
8:15 PM,48.2,41.0,76,29.59,10.0,West,10.4,-,0.10,Thunderstorm,Overcast,280,2013-12-22 02:15:00
8:35 PM,46.4,39.2,76,29.62,10.0,West,12.7,-,0.15,,Overcast,270,2013-12-22 02:35:00
8:55 PM,44.6,37.4,76,29.59,10.0,WNW,10.4,-,0.18,,Overcast,300,2013-12-22 02:55:00
9:15 PM,44.6,35.6,71,29.63,10.0,West,6.9,-,0.01,,Overcast,270,2013-12-22 03:15:00
9:35 PM,44.6,35.6,71,29.62,10.0,WSW,5.8,-,0.02,,Overcast,240,2013-12-22 03:35:00
9:55 PM,44.6,35.6,71,29.62,10.0,West,5.8,-,0.02,,Overcast,270,2013-12-22 03:55:00
10:15 PM,44.6,35.6,71,29.63,10.0,West,5.8,-,N/A,,Overcast,270,2013-12-22 04:15:00
10:35 PM,44.6,35.6,71,29.63,10.0,WNW,6.9,-,N/A,,Overcast,290,2013-12-22 04:35:00
10:55 PM,44.6,35.6,71,29.65,10.0,West,9.2,-,N/A,,Overcast,280,2013-12-22 04:55:00
11:15 PM,44.6,35.6,71,29.68,10.0,WNW,10.4,-,N/A,,Overcast,300,2013-12-22 05:15:00
11:35 PM,44.6,35.6,71,29.71,10.0,WNW,10.4,-,N/A,,Overcast,290,2013-12-22 05:35:00
11:55 PM,44.6,35.6,71,29.73,10.0,WNW,9.2,-,N/A,,Overcast,290,2013-12-22 05:55:00